Time,TemperatureF,DewpointF,PressureIn,WindDirection,WindDirectionDegrees,WindSpeedMPH,WindSpeedGustMPH,Humidity,HourlyPrecipIn,Conditions,Clouds,dailyrainin,SoftwareType,DateUTC
2013-03-27 00:04:00,4.3,-9.5,30.09,NNE,22,2.9,2.9,52,0.00,CLR,,0.00,WeatherDisplay:10.37,2013-03-27 08:04:00,
2013-03-27 00:09:00,4.1,-9.7,30.09,NNE,22,2.9,2.9,52,0.00,CLR,,0.00,WeatherDisplay:10.37,2013-03-27 08:09:00,
2013-03-27 00:14:00,3.7,-10.0,30.09,NNE,22,2.9,2.9,52,0.00,CLR,,0.00,WeatherDisplay:10.37,2013-03-27 08:14:00,
2013-03-27 00:19:00,3.4,-10.3,30.09,NNE,22,2.9,2.9,52,0.00,CLR,,0.00,WeatherDisplay:10.37,2013-03-27 08:19:00,
2013-03-27 00:24:00,3.0,-10.7,30.09,NNE,22,2.9,2.9,52,0.00,CLR,,0.00,WeatherDisplay:10.37,2013-03-27 08:24:00,
2013-03-27 00:29:00,3.2,-10.5,30.09,NNE,22,2.9,2.9,52,0.00,CLR,,0.00,WeatherDisplay:10.37,2013-03-27 08:29:00,
2013-03-27 00:34:00,3.2,-10.5,30.09,NNE,22,2.9,2.9,52,0.00,CLR,,0.00,WeatherDisplay:10.37,2013-03-27 08:34:00,
2013-03-27 00:39:00,3.4,-10.3,30.09,NNE,22,2.9,2.9,52,0.00,CLR,,0.00,WeatherDisplay:10.37,2013-03-27 08:39:00,
2013-03-27 00:44:00,3.4,-10.3,30.09,NNE,22,2.9,2.9,52,0.00,CLR,,0.00,WeatherDisplay:10.37,2013-03-27 08:44:00,
2013-03-27 00:49:00,3.2,-10.5,30.09,NNE,22,2.9,2.9,52,0.00,CLR,,0.00,WeatherDisplay:10.37,2013-03-27 08:49:00,
2013-03-27 00:54:00,3.6,-10.2,30.09,NNE,22,2.9,2.9,52,0.00,CLR,,0.00,WeatherDisplay:10.37,2013-03-27 08:54:00,
2013-03-27 00:59:00,3.9,-9.8,30.09,NNE,22,2.9,2.9,52,0.00,CLR,,0.00,WeatherDisplay:10.37,2013-03-27 08:59:00,
2013-03-27 01:04:00,3.7,-10.0,30.09,NNE,22,2.9,2.9,52,0.00,CLR,,0.00,WeatherDisplay:10.37,2013-03-27 09:04:00,
2013-03-27 01:09:00,3.7,-10.0,30.09,NNE,22,2.9,2.9,52,0.00,CLR,,0.00,WeatherDisplay:10.37,2013-03-27 09:09:00,
2013-03-27 01:14:00,3.7,-10.0,30.09,NNE,22,2.9,2.9,52,0.00,CLR,,0.00,WeatherDisplay:10.37,2013-03-27 09:14:00,
2013-03-27 01:19:00,3.4,-10.3,30.09,NNE,22,2.9,2.9,52,0.00,CLR,,0.00,WeatherDisplay:10.37,2013-03-27 09:19:00,
2013-03-27 01:24:00,3.7,-10.0,30.09,NNE,22,2.9,2.9,52,0.00,CLR,,0.00,WeatherDisplay:10.37,2013-03-27 09:24:00,
2013-03-27 01:29:00,3.6,-10.2,30.09,NNE,22,2.9,2.9,52,0.00,CLR,,0.00,WeatherDisplay:10.37,2013-03-27 09:29:00,
2013-03-27 01:34:00,3.0,-10.7,30.09,NNE,22,2.9,2.9,52,0.00,CLR,,0.00,WeatherDisplay:10.37,2013-03-27 09:34:00,
2013-03-27 01:39:00,3.2,-10.5,30.09,NNE,22,2.9,2.9,52,0.00,CLR,,0.00,WeatherDisplay:10.37,2013-03-27 09:39:00,
2013-03-27 01:44:00,3.2,-10.5,30.09,NNE,22,2.9,2.9,52,0.00,CLR,,0.00,WeatherDisplay:10.37,2013-03-27 09:44:00,
2013-03-27 01:49:00,2.8,-10.8,30.09,NNE,22,2.9,2.9,52,0.00,CLR,,0.00,WeatherDisplay:10.37,2013-03-27 09:49:00,
2013-03-27 01:54:00,2.7,-11.0,30.09,NNE,22,2.9,2.9,52,0.00,CLR,,0.00,WeatherDisplay:10.37,2013-03-27 09:54:00,
2013-03-27 01:59:00,2.5,-11.2,30.09,NNE,22,2.9,2.9,52,0.00,CLR,,0.00,WeatherDisplay:10.37,2013-03-27 09:59:00,
2013-03-27 02:04:00,1.9,-11.7,30.09,NNE,22,2.9,2.9,52,0.00,CLR,,0.00,WeatherDisplay:10.37,2013-03-27 10:04:00,
2013-03-27 02:09:00,1.6,-12.0,30.09,NNE,22,2.9,2.9,52,0.00,CLR,,0.00,WeatherDisplay:10.37,2013-03-27 10:09:00,
2013-03-27 02:14:00,1.2,-12.3,30.09,NNE,22,2.9,2.9,52,0.00,CLR,,0.00,WeatherDisplay:10.37,2013-03-27 10:14:00,
2013-03-27 02:19:00,0.7,-12.9,30.09,NNE,22,2.9,2.9,52,0.00,CLR,,0.00,WeatherDisplay:10.37,2013-03-27 10:19:00,
2013-03-27 02:24:00,0.7,-12.9,30.09,NNE,22,2.9,2.9,52,0.00,CLR,,0.00,WeatherDisplay:10.37,2013-03-27 10:24:00,
2013-03-27 02:29:00,0.9,-12.7,30.09,NNE,22,2.9,2.9,52,0.00,CLR,,0.00,WeatherDisplay:10.37,2013-03-27 10:29:00,
2013-03-27 02:34:00,0.7,-12.9,30.09,NNE,22,2.9,2.9,52,0.00,CLR,,0.00,WeatherDisplay:10.37,2013-03-27 10:34:00,
2013-03-27 02:39:00,0.9,-12.7,30.09,NNE,22,2.9,2.9,52,0.00,CLR,,0.00,WeatherDisplay:10.37,2013-03-27 10:39:00,
2013-03-27 02:44:00,1.2,-12.3,30.09,NNE,22,2.9,2.9,52,0.00,CLR,,0.00,WeatherDisplay:10.37,2013-03-27 10:44:00,
2013-03-27 02:49:00,1.0,-12.5,30.09,NNE,22,2.9,2.9,52,0.00,CLR,,0.00,WeatherDisplay:10.37,2013-03-27 10:49:00,
2013-03-27 02:54:00,1.0,-12.5,30.09,NNE,22,2.9,2.9,52,0.00,CLR,,0.00,WeatherDisplay:10.37,2013-03-27 10:54:00,
2013-03-27 02:59:00,0.7,-12.9,30.09,NNE,22,2.9,2.9,52,0.00,CLR,,0.00,WeatherDisplay:10.37,2013-03-27 10:59:00,
2013-03-27 03:04:00,0.3,-13.2,30.09,NNE,22,2.9,2.9,52,0.00,CLR,,0.00,WeatherDisplay:10.37,2013-03-27 11:04:00,
2013-03-27 03:09:00,0.3,-13.2,30.09,NNE,22,2.9,2.9,52,0.00,CLR,,0.00,WeatherDisplay:10.37,2013-03-27 11:09:00,
2013-03-27 03:14:00,-0.4,-13.9,30.09,NNE,22,2.9,2.9,52,0.00,CLR,,0.00,WeatherDisplay:10.37,2013-03-27 11:14:00,
2013-03-27 03:19:00,-0.4,-13.9,30.09,NNE,22,2.9,2.9,52,0.00,CLR,,0.00,WeatherDisplay:10.37,2013-03-27 11:19:00,
2013-03-27 03:24:00,-0.6,-14.0,30.09,NNE,22,2.9,2.9,52,0.00,CLR,,0.00,WeatherDisplay:10.37,2013-03-27 11:24:00,
2013-03-27 03:29:00,-0.6,-14.0,30.09,NNE,22,2.9,2.9,52,0.00,CLR,,0.00,WeatherDisplay:10.37,2013-03-27 11:29:00,
2013-03-27 03:34:00,-0.6,-14.0,30.09,NNE,22,2.9,2.9,52,0.00,CLR,,0.00,WeatherDisplay:10.37,2013-03-27 11:34:00,
2013-03-27 03:39:00,-0.6,-14.0,30.09,NNE,22,2.9,2.9,52,0.00,CLR,,0.00,WeatherDisplay:10.37,2013-03-27 11:39:00,
2013-03-27 03:44:00,-0.9,-14.4,30.09,NNE,22,2.9,2.9,52,0.00,CLR,,0.00,WeatherDisplay:10.37,2013-03-27 11:44:00,
2013-03-27 03:49:00,-1.1,-14.5,30.09,NNE,22,2.9,2.9,52,0.00,CLR,,0.00,WeatherDisplay:10.37,2013-03-27 11:49:00,
2013-03-27 03:54:00,-0.9,-14.4,30.09,NNE,22,2.9,2.9,52,0.00,CLR,,0.00,WeatherDisplay:10.37,2013-03-27 11:54:00,
2013-03-27 03:59:00,-1.1,-14.5,30.09,NNE,22,2.9,2.9,52,0.00,CLR,,0.00,WeatherDisplay:10.37,2013-03-27 11:59:00,
2013-03-27 04:04:00,-1.5,-14.9,30.09,NNE,22,2.9,2.9,52,0.00,CLR,,0.00,WeatherDisplay:10.37,2013-03-27 12:04:00,
2013-03-27 04:09:00,-1.7,-15.0,30.09,NNE,22,2.9,2.9,52,0.00,CLR,,0.00,WeatherDisplay:10.37,2013-03-27 12:09:00,
2013-03-27 04:14:00,-1.8,-15.2,30.09,NNE,22,2.9,2.9,52,0.00,CLR,,0.00,WeatherDisplay:10.37,2013-03-27 12:14:00,
2013-03-27 04:19:00,-1.7,-15.0,30.12,NNE,22,2.9,2.9,52,0.00,CLR,,0.00,WeatherDisplay:10.37,2013-03-27 12:19:00,
2013-03-27 04:24:00,-1.5,-14.9,30.12,NNE,22,2.9,2.9,52,0.00,CLR,,0.00,WeatherDisplay:10.37,2013-03-27 12:24:00,
2013-03-27 04:29:00,-1.7,-15.0,30.12,NNE,22,2.9,2.9,52,0.00,CLR,,0.00,WeatherDisplay:10.37,2013-03-27 12:29:00,
2013-03-27 04:34:00,-1.8,-15.2,30.09,NNE,22,2.9,2.9,52,0.00,CLR,,0.00,WeatherDisplay:10.37,2013-03-27 12:34:00,
2013-03-27 04:39:00,-1.8,-15.2,30.09,NNE,22,2.9,2.9,52,0.00,CLR,,0.00,WeatherDisplay:10.37,2013-03-27 12:39:00,
2013-03-27 04:44:00,-1.8,-15.2,30.09,NNE,22,2.9,2.9,52,0.00,CLR,,0.00,WeatherDisplay:10.37,2013-03-27 12:44:00,
2013-03-27 04:49:00,-2.0,-15.4,30.12,NNE,22,2.9,2.9,52,0.00,CLR,,0.00,WeatherDisplay:10.37,2013-03-27 12:49:00,
2013-03-27 04:54:00,-2.0,-15.4,30.12,NNE,22,2.9,2.9,52,0.00,CLR,,0.00,WeatherDisplay:10.37,2013-03-27 12:54:00,
2013-03-27 04:59:00,-2.2,-15.5,30.12,NNE,22,2.9,2.9,52,0.00,CLR,,0.00,WeatherDisplay:10.37,2013-03-27 12:59:00,
2013-03-27 05:04:00,-2.6,-15.9,30.12,NNE,22,2.9,2.9,52,0.00,CLR,,0.00,WeatherDisplay:10.37,2013-03-27 13:04:00,
2013-03-27 05:09:00,-2.2,-15.5,30.12,NNE,22,2.9,2.9,52,0.00,CLR,,0.00,WeatherDisplay:10.37,2013-03-27 13:09:00,
2013-03-27 05:14:00,-2.2,-15.5,30.12,NNE,22,2.9,2.9,52,0.00,CLR,,0.00,WeatherDisplay:10.37,2013-03-27 13:14:00,
2013-03-27 05:19:00,-2.2,-15.5,30.12,NNE,22,2.9,2.9,52,0.00,CLR,,0.00,WeatherDisplay:10.37,2013-03-27 13:19:00,
2013-03-27 05:24:00,-2.2,-15.5,30.12,NNE,22,2.9,2.9,52,0.00,CLR,,0.00,WeatherDisplay:10.37,2013-03-27 13:24:00,
2013-03-27 05:29:00,-2.2,-15.5,30.12,NNE,22,2.9,2.9,52,0.00,CLR,,0.00,WeatherDisplay:10.37,2013-03-27 13:29:00,
2013-03-27 05:34:00,-2.0,-15.4,30.12,NNE,22,2.9,2.9,52,0.00,CLR,,0.00,WeatherDisplay:10.37,2013-03-27 13:34:00,
2013-03-27 05:39:00,-1.8,-15.2,30.12,NNE,22,2.9,2.9,52,0.00,CLR,,0.00,WeatherDisplay:10.37,2013-03-27 13:39:00,
2013-03-27 05:44:00,-1.8,-15.2,30.12,NNE,22,2.9,2.9,52,0.00,CLR,,0.00,WeatherDisplay:10.37,2013-03-27 13:44:00,
2013-03-27 05:49:00,-1.8,-15.2,30.12,NNE,22,2.9,2.9,52,0.00,CLR,,0.00,WeatherDisplay:10.37,2013-03-27 13:49:00,
2013-03-27 05:54:00,-1.8,-15.2,30.12,NNE,22,2.9,2.9,52,0.00,CLR,,0.00,WeatherDisplay:10.37,2013-03-27 13:54:00,
2013-03-27 05:59:00,-1.7,-15.0,30.12,NNE,22,2.9,2.9,52,0.00,CLR,,0.00,WeatherDisplay:10.37,2013-03-27 13:59:00,
2013-03-27 06:04:00,-1.7,-15.0,30.12,NNE,22,2.9,2.9,52,0.00,CLR,,0.00,WeatherDisplay:10.37,2013-03-27 14:04:00,
2013-03-27 06:09:00,-1.3,-14.7,30.12,NNE,22,2.9,2.9,52,0.00,CLR,,0.00,WeatherDisplay:10.37,2013-03-27 14:09:00,
2013-03-27 06:14:00,-1.3,-14.7,30.12,NNE,22,2.9,2.9,52,0.00,CLR,,0.00,WeatherDisplay:10.37,2013-03-27 14:14:00,
2013-03-27 06:19:00,-1.3,-14.7,30.12,NNE,22,2.9,2.9,52,0.00,CLR,,0.00,WeatherDisplay:10.37,2013-03-27 14:19:00,
2013-03-27 06:24:00,-1.7,-15.0,30.12,NNE,22,2.9,2.9,52,0.00,CLR,,0.00,WeatherDisplay:10.37,2013-03-27 14:24:00,
2013-03-27 06:29:00,-1.8,-15.2,30.12,NNE,22,2.9,2.9,52,0.00,CLR,,0.00,WeatherDisplay:10.37,2013-03-27 14:29:00,
2013-03-27 06:34:00,-1.8,-15.2,30.12,NNE,22,2.9,2.9,52,0.00,CLR,,0.00,WeatherDisplay:10.37,2013-03-27 14:34:00,
2013-03-27 06:39:00,-1.7,-15.0,30.12,NNE,22,2.9,2.9,52,0.00,CLR,,0.00,WeatherDisplay:10.37,2013-03-27 14:39:00,
2013-03-27 06:44:00,-1.8,-15.2,30.12,NNE,22,2.9,2.9,52,0.00,CLR,,0.00,WeatherDisplay:10.37,2013-03-27 14:44:00,
2013-03-27 06:49:00,-1.8,-15.2,30.12,NNE,22,2.9,2.9,52,0.00,CLR,,0.00,WeatherDisplay:10.37,2013-03-27 14:49:00,
2013-03-27 06:54:00,-1.8,-15.2,30.12,NNE,22,2.9,2.9,52,0.00,CLR,,0.00,WeatherDisplay:10.37,2013-03-27 14:54:00,
2013-03-27 06:59:00,-1.7,-15.0,30.12,NNE,22,2.9,2.9,52,0.00,CLR,,0.00,WeatherDisplay:10.37,2013-03-27 14:59:00,
2013-03-27 07:04:00,-1.8,-15.2,30.12,NNE,22,2.9,2.9,52,0.00,CLR,,0.00,WeatherDisplay:10.37,2013-03-27 15:04:00,
2013-03-27 07:09:00,-2.2,-15.5,30.12,NNE,22,2.9,2.9,52,0.00,CLR,,0.00,WeatherDisplay:10.37,2013-03-27 15:09:00,
2013-03-27 07:14:00,-2.0,-15.4,30.12,NNE,22,2.9,2.9,52,0.00,CLR,,0.00,WeatherDisplay:10.37,2013-03-27 15:14:00,
2013-03-27 07:19:00,-2.0,-15.4,30.12,NNE,22,2.9,2.9,52,0.00,CLR,,0.00,WeatherDisplay:10.37,2013-03-27 15:19:00,
2013-03-27 07:24:00,-2.2,-15.5,30.12,NNE,22,2.9,2.9,52,0.00,CLR,,0.00,WeatherDisplay:10.37,2013-03-27 15:24:00,
2013-03-27 07:29:00,-2.6,-15.9,30.12,NNE,22,2.9,2.9,52,0.00,CLR,,0.00,WeatherDisplay:10.37,2013-03-27 15:29:00,
2013-03-27 07:34:00,-2.2,-15.5,30.15,NNE,22,2.9,2.9,52,0.00,CLR,,0.00,WeatherDisplay:10.37,2013-03-27 15:34:00,
2013-03-27 07:39:00,-1.8,-15.2,30.15,NNE,22,2.9,2.9,52,0.00,CLR,,0.00,WeatherDisplay:10.37,2013-03-27 15:39:00,
2013-03-27 07:44:00,-1.8,-15.2,30.15,NNE,22,2.9,2.9,52,0.00,CLR,,0.00,WeatherDisplay:10.37,2013-03-27 15:44:00,
2013-03-27 07:49:00,-1.5,-14.9,30.15,NNE,22,2.9,2.9,52,0.00,CLR,,0.00,WeatherDisplay:10.37,2013-03-27 15:49:00,
2013-03-27 07:54:00,-1.3,-14.7,30.15,NNE,22,2.9,2.9,52,0.00,CLR,,0.00,WeatherDisplay:10.37,2013-03-27 15:54:00,
2013-03-27 07:59:00,-1.3,-14.7,30.15,NNE,22,2.9,2.9,52,0.00,CLR,,0.00,WeatherDisplay:10.37,2013-03-27 15:59:00,
2013-03-27 08:04:00,-0.6,-14.0,30.15,NNE,22,2.9,2.9,52,0.00,CLR,,0.00,WeatherDisplay:10.37,2013-03-27 16:04:00,
2013-03-27 08:09:00,0.0,-13.5,30.15,NNE,22,2.9,2.9,52,0.00,CLR,,0.00,WeatherDisplay:10.37,2013-03-27 16:09:00,
2013-03-27 08:14:00,0.0,-13.5,30.15,NNE,22,2.9,2.9,52,0.00,CLR,,0.00,WeatherDisplay:10.37,2013-03-27 16:14:00,
2013-03-27 08:19:00,0.7,-12.9,30.15,NNE,22,2.9,2.9,52,0.00,CLR,,0.00,WeatherDisplay:10.37,2013-03-27 16:19:00,
2013-03-27 08:24:00,1.2,-12.3,30.15,NNE,22,2.9,2.9,52,0.00,CLR,,0.00,WeatherDisplay:10.37,2013-03-27 16:24:00,
2013-03-27 08:29:00,1.9,-11.7,30.15,NNE,22,2.9,2.9,52,0.00,CLR,,0.00,WeatherDisplay:10.37,2013-03-27 16:29:00,
2013-03-27 08:34:00,2.7,-11.0,30.15,NNE,22,2.9,2.9,52,0.00,CLR,,0.00,WeatherDisplay:10.37,2013-03-27 16:34:00,
2013-03-27 08:39:00,3.0,-10.7,30.15,NNE,22,2.9,2.9,52,0.00,CLR,,0.00,WeatherDisplay:10.37,2013-03-27 16:39:00,
2013-03-27 08:44:00,3.9,-9.8,30.15,NNE,22,2.9,2.9,52,0.00,CLR,,0.00,WeatherDisplay:10.37,2013-03-27 16:44:00,
2013-03-27 08:49:00,4.8,-9.0,30.15,NNE,22,2.9,2.9,52,0.00,CLR,,0.00,WeatherDisplay:10.37,2013-03-27 16:49:00,
2013-03-27 08:54:00,5.5,-8.3,30.15,NNE,22,2.9,2.9,52,0.00,CLR,,0.00,WeatherDisplay:10.37,2013-03-27 16:54:00,
2013-03-27 08:59:00,5.9,-8.0,30.15,NNE,22,2.9,2.9,52,0.00,CLR,,0.00,WeatherDisplay:10.37,2013-03-27 16:59:00,
2013-03-27 09:04:00,5.9,-8.0,30.15,NNE,22,2.9,2.9,52,0.00,CLR,,0.00,WeatherDisplay:10.37,2013-03-27 17:04:00,
2013-03-27 09:09:00,5.5,-8.3,30.15,NNE,22,2.9,2.9,52,0.00,CLR,,0.00,WeatherDisplay:10.37,2013-03-27 17:09:00,
2013-03-27 09:14:00,5.4,-8.5,30.15,NNE,22,2.9,2.9,52,0.00,CLR,,0.00,WeatherDisplay:10.37,2013-03-27 17:14:00,
2013-03-27 09:19:00,5.0,-8.8,30.15,NNE,22,2.9,2.9,52,0.00,CLR,,0.00,WeatherDisplay:10.37,2013-03-27 17:19:00,
2013-03-27 09:24:00,5.0,-8.8,30.15,NNE,22,2.9,2.9,52,0.00,CLR,,0.00,WeatherDisplay:10.37,2013-03-27 17:24:00,
2013-03-27 09:29:00,5.4,-8.5,30.15,NNE,22,2.9,2.9,52,0.00,CLR,,0.00,WeatherDisplay:10.37,2013-03-27 17:29:00,
2013-03-27 09:34:00,5.7,-8.1,30.15,NNE,22,2.9,2.9,52,0.00,CLR,,0.00,WeatherDisplay:10.37,2013-03-27 17:34:00,
2013-03-27 09:39:00,5.4,-8.5,30.15,NNE,22,2.9,2.9,52,0.00,CLR,,0.00,WeatherDisplay:10.37,2013-03-27 17:39:00,
2013-03-27 09:44:00,5.7,-8.1,30.15,NNE,22,2.9,2.9,52,0.00,CLR,,0.00,WeatherDisplay:10.37,2013-03-27 17:44:00,
2013-03-27 09:49:00,5.7,-8.1,30.15,NNE,22,2.9,2.9,52,0.00,CLR,,0.00,WeatherDisplay:10.37,2013-03-27 17:49:00,
2013-03-27 09:54:00,5.5,-8.3,30.15,NNE,22,2.9,2.9,52,0.00,CLR,,0.00,WeatherDisplay:10.37,2013-03-27 17:54:00,
2013-03-27 09:59:00,5.7,-8.1,30.15,NNE,22,2.9,2.9,52,0.00,CLR,,0.00,WeatherDisplay:10.37,2013-03-27 17:59:00,
2013-03-27 10:04:00,5.9,-8.0,30.15,NNE,22,2.9,2.9,52,0.00,CLR,,0.00,WeatherDisplay:10.37,2013-03-27 18:04:00,
2013-03-27 10:09:00,6.1,-7.8,30.15,NNE,22,2.9,2.9,52,0.00,CLR,,0.00,WeatherDisplay:10.37,2013-03-27 18:09:00,
2013-03-27 10:14:00,6.4,-7.5,30.15,NNE,22,2.9,2.9,52,0.00,CLR,,0.00,WeatherDisplay:10.37,2013-03-27 18:14:00,
2013-03-27 10:19:00,7.0,-7.0,30.15,NNE,22,2.9,2.9,52,0.00,CLR,,0.00,WeatherDisplay:10.37,2013-03-27 18:19:00,
2013-03-27 10:24:00,7.2,-6.8,30.15,NNE,22,2.9,2.9,52,0.00,CLR,,0.00,WeatherDisplay:10.37,2013-03-27 18:24:00,
2013-03-27 10:29:00,7.0,-7.0,30.15,NNE,22,2.9,2.9,52,0.00,CLR,,0.00,WeatherDisplay:10.37,2013-03-27 18:29:00,
2013-03-27 10:34:00,7.0,-7.0,30.15,NNE,22,2.9,2.9,52,0.00,CLR,,0.00,WeatherDisplay:10.37,2013-03-27 18:34:00,
2013-03-27 10:39:00,7.5,-6.5,30.15,NNE,22,2.9,2.9,52,0.00,CLR,,0.00,WeatherDisplay:10.37,2013-03-27 18:39:00,
2013-03-27 10:44:00,7.5,-6.5,30.15,NNE,22,2.9,2.9,52,0.00,CLR,,0.00,WeatherDisplay:10.37,2013-03-27 18:44:00,
2013-03-27 10:49:00,7.9,-6.1,30.15,NNE,22,2.9,2.9,52,0.00,CLR,,0.00,WeatherDisplay:10.37,2013-03-27 18:49:00,
2013-03-27 10:54:00,9.0,-5.1,30.15,NNE,22,2.9,2.9,52,0.00,CLR,,0.00,WeatherDisplay:10.37,2013-03-27 18:54:00,
2013-03-27 10:59:00,9.3,-4.8,30.15,NNE,22,2.9,2.9,52,0.00,CLR,,0.00,WeatherDisplay:10.37,2013-03-27 18:59:00,
2013-03-27 11:04:00,9.7,-4.4,30.15,NNE,22,2.9,2.9,52,0.00,CLR,,0.00,WeatherDisplay:10.37,2013-03-27 19:04:00,
2013-03-27 11:09:00,10.2,-3.9,30.15,NNE,22,2.9,2.9,52,0.00,CLR,,0.00,WeatherDisplay:10.37,2013-03-27 19:09:00,
2013-03-27 11:14:00,10.4,-3.8,30.15,NNE,22,2.9,2.9,52,0.00,CLR,,0.00,WeatherDisplay:10.37,2013-03-27 19:14:00,
2013-03-27 11:19:00,10.0,-4.1,30.15,NNE,22,2.9,2.9,52,0.00,CLR,,0.00,WeatherDisplay:10.37,2013-03-27 19:19:00,
2013-03-27 11:24:00,9.9,-4.3,30.15,NNE,22,2.9,2.9,52,0.00,CLR,,0.00,WeatherDisplay:10.37,2013-03-27 19:24:00,
2013-03-27 11:29:00,10.2,-3.9,30.15,NNE,22,2.9,2.9,52,0.00,CLR,,0.00,WeatherDisplay:10.37,2013-03-27 19:29:00,
2013-03-27 11:34:00,10.4,-3.8,30.15,NNE,22,2.9,2.9,52,0.00,CLR,,0.00,WeatherDisplay:10.37,2013-03-27 19:34:00,
2013-03-27 11:39:00,10.8,-3.4,30.15,NNE,22,2.9,2.9,52,0.00,CLR,,0.00,WeatherDisplay:10.37,2013-03-27 19:39:00,
2013-03-27 11:44:00,12.0,-2.3,30.15,NNE,22,2.9,2.9,52,0.00,CLR,,0.00,WeatherDisplay:10.37,2013-03-27 19:44:00,
2013-03-27 11:49:00,12.2,-2.1,30.15,NNE,22,2.9,2.9,52,0.00,CLR,,0.00,WeatherDisplay:10.37,2013-03-27 19:49:00,
2013-03-27 11:54:00,12.9,-1.4,30.15,NNE,22,2.9,2.9,52,0.00,CLR,,0.00,WeatherDisplay:10.37,2013-03-27 19:54:00,
2013-03-27 11:59:00,14.0,1.2,30.15,NNE,22,2.9,2.9,56,0.00,CLR,,0.00,WeatherDisplay:10.37,2013-03-27 19:59:00,
2013-03-27 12:04:00,13.8,1.0,30.15,NNE,22,2.9,2.9,56,0.00,CLR,,0.00,WeatherDisplay:10.37,2013-03-27 20:04:00,
2013-03-27 12:09:00,14.2,0.6,30.15,NNE,22,2.9,2.9,54,0.00,CLR,,0.00,WeatherDisplay:10.37,2013-03-27 20:09:00,
2013-03-27 12:14:00,13.6,0.0,30.15,NNE,22,2.9,2.9,54,0.00,CLR,,0.00,WeatherDisplay:10.37,2013-03-27 20:14:00,
2013-03-27 12:19:00,14.5,1.3,30.15,NNE,22,2.9,2.9,55,0.00,CLR,,0.00,WeatherDisplay:10.37,2013-03-27 20:19:00,
2013-03-27 12:24:00,15.1,1.4,30.15,NNE,22,2.9,2.9,54,0.00,CLR,,0.00,WeatherDisplay:10.37,2013-03-27 20:24:00,
2013-03-27 12:29:00,16.2,2.4,30.15,NNE,22,2.9,2.9,54,0.00,CLR,,0.00,WeatherDisplay:10.37,2013-03-27 20:29:00,
2013-03-27 12:34:00,16.7,2.5,30.15,NNE,22,2.9,2.9,53,0.00,CLR,,0.00,WeatherDisplay:10.37,2013-03-27 20:34:00,
2013-03-27 12:39:00,16.7,2.5,30.15,NNE,22,2.9,2.9,53,0.00,CLR,,0.00,WeatherDisplay:10.37,2013-03-27 20:39:00,
2013-03-27 12:44:00,16.0,1.8,30.15,NNE,22,2.9,2.9,53,0.00,CLR,,0.00,WeatherDisplay:10.37,2013-03-27 20:44:00,
2013-03-27 12:49:00,16.7,2.9,30.15,NNE,22,2.9,2.9,54,0.00,CLR,,0.00,WeatherDisplay:10.37,2013-03-27 20:49:00,
2013-03-27 12:54:00,16.2,2.0,30.15,NNE,22,2.9,2.9,53,0.00,CLR,,0.00,WeatherDisplay:10.37,2013-03-27 20:54:00,
2013-03-27 12:59:00,17.1,2.8,30.15,NNE,22,2.9,2.9,53,0.00,CLR,,0.00,WeatherDisplay:10.37,2013-03-27 20:59:00,
2013-03-27 13:04:00,18.1,3.9,30.15,NNE,22,2.9,2.9,53,0.00,CLR,,0.00,WeatherDisplay:10.37,2013-03-27 21:04:00,
2013-03-27 13:09:00,18.1,3.4,30.15,NNE,22,2.9,2.9,52,0.00,CLR,,0.00,WeatherDisplay:10.37,2013-03-27 21:09:00,
2013-03-27 13:14:00,17.6,3.3,30.15,NNE,22,2.9,2.9,53,0.00,CLR,,0.00,WeatherDisplay:10.37,2013-03-27 21:14:00,
2013-03-27 13:20:00,17.6,3.8,30.15,NNE,22,2.9,2.9,54,0.00,CLR,,0.00,WeatherDisplay:10.37,2013-03-27 21:20:00,
2013-03-27 13:25:00,18.1,4.7,30.15,NNE,22,2.9,2.9,55,0.00,CLR,,0.00,WeatherDisplay:10.37,2013-03-27 21:25:00,
2013-03-27 13:30:00,17.8,3.9,30.15,NNE,22,2.9,2.9,54,0.00,CLR,,0.00,WeatherDisplay:10.37,2013-03-27 21:30:00,
2013-03-27 13:35:00,17.4,3.2,30.15,NNE,22,2.9,2.9,53,0.00,CLR,,0.00,WeatherDisplay:10.37,2013-03-27 21:35:00,
2013-03-27 13:40:00,18.1,3.9,30.15,NNE,22,2.9,2.9,53,0.00,CLR,,0.00,WeatherDisplay:10.37,2013-03-27 21:40:00,
2013-03-27 13:45:00,18.5,4.2,30.15,NNE,22,2.9,2.9,53,0.00,CLR,,0.00,WeatherDisplay:10.37,2013-03-27 21:45:00,
2013-03-27 13:50:00,18.7,3.5,30.15,NNE,22,2.9,2.9,51,0.00,CLR,,0.00,WeatherDisplay:10.37,2013-03-27 21:50:00,
2013-03-27 13:55:00,19.2,4.4,30.15,NNE,22,2.9,2.9,52,0.00,CLR,,0.00,WeatherDisplay:10.37,2013-03-27 21:55:00,
2013-03-27 14:00:00,16.9,2.7,30.15,NNE,22,2.9,2.9,53,0.00,CLR,,0.00,WeatherDisplay:10.37,2013-03-27 22:00:00,
2013-03-27 14:05:00,16.3,2.6,30.15,NNE,22,2.9,2.9,54,0.00,CLR,,0.00,WeatherDisplay:10.37,2013-03-27 22:05:00,
2013-03-27 14:10:00,15.8,2.1,30.15,NNE,22,2.9,2.9,54,0.00,CLR,,0.00,WeatherDisplay:10.37,2013-03-27 22:10:00,
2013-03-27 14:15:00,15.4,1.3,30.15,NNE,22,2.9,2.9,53,0.00,CLR,,0.00,WeatherDisplay:10.37,2013-03-27 22:15:00,
2013-03-27 14:20:00,15.4,0.9,30.15,NNE,22,2.9,2.9,52,0.00,CLR,,0.00,WeatherDisplay:10.37,2013-03-27 22:20:00,
2013-03-27 14:25:00,15.8,1.7,30.15,NNE,22,2.9,2.9,53,0.00,CLR,,0.00,WeatherDisplay:10.37,2013-03-27 22:25:00,
2013-03-27 14:30:00,16.2,2.0,30.15,NNE,22,2.9,2.9,53,0.00,CLR,,0.00,WeatherDisplay:10.37,2013-03-27 22:30:00,
2013-03-27 14:35:00,16.7,2.1,30.15,NNE,22,2.9,2.9,52,0.00,CLR,,0.00,WeatherDisplay:10.37,2013-03-27 22:35:00,
2013-03-27 14:40:00,16.7,1.3,30.15,NNE,22,2.9,2.9,50,0.00,CLR,,0.00,WeatherDisplay:10.37,2013-03-27 22:40:00,
2013-03-27 14:45:00,17.6,1.7,30.15,NNE,22,2.9,2.9,49,0.00,CLR,,0.00,WeatherDisplay:10.37,2013-03-27 22:45:00,
2013-03-27 14:50:00,17.6,1.2,30.15,NNE,22,2.9,2.9,48,0.00,CLR,,0.00,WeatherDisplay:10.37,2013-03-27 22:50:00,
2013-03-27 14:55:00,18.3,1.9,30.15,NNE,22,2.9,2.9,48,0.00,CLR,,0.00,WeatherDisplay:10.37,2013-03-27 22:55:00,
2013-03-27 15:00:00,18.3,1.4,30.15,NNE,22,2.9,2.9,47,0.00,CLR,,0.00,WeatherDisplay:10.37,2013-03-27 23:00:00,
2013-03-27 15:05:00,18.5,1.6,30.15,NNE,22,2.9,2.9,47,0.00,CLR,,0.00,WeatherDisplay:10.37,2013-03-27 23:05:00,
2013-03-27 15:10:00,18.7,1.8,30.15,NNE,22,2.9,2.9,47,0.00,CLR,,0.00,WeatherDisplay:10.37,2013-03-27 23:10:00,
2013-03-27 15:15:00,19.0,2.5,30.15,NNE,22,2.9,2.9,48,0.00,CLR,,0.00,WeatherDisplay:10.37,2013-03-27 23:15:00,
2013-03-27 15:20:00,18.5,2.0,30.15,NNE,22,2.9,2.9,48,0.00,CLR,,0.00,WeatherDisplay:10.37,2013-03-27 23:20:00,
2013-03-27 15:25:00,18.7,2.2,30.15,NNE,22,2.9,2.9,48,0.00,CLR,,0.00,WeatherDisplay:10.37,2013-03-27 23:25:00,
2013-03-27 15:30:00,19.2,2.7,30.15,NNE,22,2.9,2.9,48,0.00,CLR,,0.00,WeatherDisplay:10.37,2013-03-27 23:30:00,
2013-03-27 15:35:00,20.1,3.5,30.15,NNE,22,2.9,2.9,48,0.00,CLR,,0.00,WeatherDisplay:10.37,2013-03-27 23:35:00,
2013-03-27 15:40:00,19.9,3.4,30.15,NNE,22,2.9,2.9,48,0.00,CLR,,0.00,WeatherDisplay:10.37,2013-03-27 23:40:00,
2013-03-27 15:45:00,20.5,3.9,30.15,NNE,22,2.9,2.9,48,0.00,CLR,,0.00,WeatherDisplay:10.37,2013-03-27 23:45:00,
2013-03-27 15:50:00,20.7,4.0,30.15,NNE,22,2.9,2.9,48,0.00,CLR,,0.00,WeatherDisplay:10.37,2013-03-27 23:50:00,
2013-03-27 15:55:00,20.5,3.4,30.15,NNE,22,2.9,2.9,47,0.00,CLR,,0.00,WeatherDisplay:10.37,2013-03-27 23:55:00,
2013-03-27 16:00:00,21.2,4.1,30.15,NNE,22,2.9,2.9,47,0.00,CLR,,0.00,WeatherDisplay:10.37,2013-03-28 00:00:00,
2013-03-27 16:05:00,20.5,2.9,30.15,NNE,22,2.9,2.9,46,0.00,CLR,,0.00,WeatherDisplay:10.37,2013-03-28 00:05:00,
2013-03-27 16:10:00,21.0,3.9,30.15,NNE,22,2.9,2.9,47,0.00,CLR,,0.00,WeatherDisplay:10.37,2013-03-28 00:10:00,
2013-03-27 16:15:00,21.2,4.1,30.15,NNE,22,2.9,2.9,47,0.00,CLR,,0.00,WeatherDisplay:10.37,2013-03-28 00:15:00,
2013-03-27 16:20:00,21.2,4.1,30.15,NNE,22,2.9,2.9,47,0.00,CLR,,0.00,WeatherDisplay:10.37,2013-03-28 00:20:00,
2013-03-27 16:25:00,20.5,3.4,30.15,NNE,22,2.9,2.9,47,0.00,CLR,,0.00,WeatherDisplay:10.37,2013-03-28 00:25:00,
2013-03-27 16:30:00,20.7,3.6,30.15,NNE,22,2.9,2.9,47,0.00,CLR,,0.00,WeatherDisplay:10.37,2013-03-28 00:30:00,
2013-03-27 16:35:00,20.8,4.2,30.15,NNE,22,2.9,2.9,48,0.00,CLR,,0.00,WeatherDisplay:10.37,2013-03-28 00:35:00,
2013-03-27 16:40:00,20.8,3.7,30.15,NNE,22,2.9,2.9,47,0.00,CLR,,0.00,WeatherDisplay:10.37,2013-03-28 00:40:00,
2013-03-27 16:45:00,21.2,4.5,30.15,NNE,22,2.9,2.9,48,0.00,CLR,,0.00,WeatherDisplay:10.37,2013-03-28 00:45:00,
2013-03-27 16:50:00,21.4,4.7,30.15,NNE,22,2.9,2.9,48,0.00,CLR,,0.00,WeatherDisplay:10.37,2013-03-28 00:50:00,
2013-03-27 16:55:00,21.4,4.2,30.15,NNE,22,2.9,2.9,47,0.00,CLR,,0.00,WeatherDisplay:10.37,2013-03-28 00:55:00,
2013-03-27 17:00:00,21.4,3.8,30.15,NNE,22,2.9,2.9,46,0.00,CLR,,0.00,WeatherDisplay:10.37,2013-03-28 01:00:00,
2013-03-27 17:05:00,21.2,3.6,30.15,NNE,22,2.9,2.9,46,0.00,CLR,,0.00,WeatherDisplay:10.37,2013-03-28 01:05:00,
2013-03-27 17:10:00,21.2,3.6,30.15,NNE,22,2.9,2.9,46,0.00,CLR,,0.00,WeatherDisplay:10.37,2013-03-28 01:10:00,
2013-03-27 17:15:00,21.4,3.8,30.15,NNE,22,2.9,2.9,46,0.00,CLR,,0.00,WeatherDisplay:10.37,2013-03-28 01:15:00,
2013-03-27 17:20:00,21.6,3.5,30.15,NNE,22,2.9,2.9,45,0.00,CLR,,0.00,WeatherDisplay:10.37,2013-03-28 01:20:00,
2013-03-27 17:25:00,21.6,3.5,30.15,NNE,22,2.9,2.9,45,0.00,CLR,,0.00,WeatherDisplay:10.37,2013-03-28 01:25:00,
2013-03-27 17:31:00,21.6,3.5,30.15,NNE,22,2.9,2.9,45,0.00,CLR,,0.00,WeatherDisplay:10.37,2013-03-28 01:31:00,
2013-03-27 17:36:00,21.4,3.3,30.15,NNE,22,2.9,2.9,45,0.00,CLR,,0.00,WeatherDisplay:10.37,2013-03-28 01:36:00,
2013-03-27 17:41:00,21.7,3.6,30.15,NNE,22,2.9,2.9,45,0.00,CLR,,0.00,WeatherDisplay:10.37,2013-03-28 01:41:00,
2013-03-27 17:47:00,21.7,3.6,30.15,NNE,22,2.9,2.9,45,0.00,CLR,,0.00,WeatherDisplay:10.37,2013-03-28 01:47:00,
2013-03-27 17:52:00,21.7,3.6,30.15,NNE,22,2.9,2.9,45,0.00,CLR,,0.00,WeatherDisplay:10.37,2013-03-28 01:52:00,
2013-03-27 17:57:00,21.6,3.9,30.15,NNE,22,2.9,2.9,46,0.00,CLR,,0.00,WeatherDisplay:10.37,2013-03-28 01:57:00,
2013-03-27 18:02:00,21.4,3.3,30.15,NNE,22,2.9,2.9,45,0.00,CLR,,0.00,WeatherDisplay:10.37,2013-03-28 02:02:00,
2013-03-27 18:07:00,21.2,3.6,30.12,NNE,22,2.9,2.9,46,0.00,CLR,,0.00,WeatherDisplay:10.37,2013-03-28 02:07:00,
2013-03-27 18:12:00,21.4,3.8,30.12,NNE,22,2.9,2.9,46,0.00,CLR,,0.00,WeatherDisplay:10.37,2013-03-28 02:12:00,
2013-03-27 18:17:00,21.4,3.8,30.12,NNE,22,2.9,2.9,46,0.00,CLR,,0.00,WeatherDisplay:10.37,2013-03-28 02:17:00,
2013-03-27 18:22:00,21.4,3.8,30.15,NNE,22,2.9,2.9,46,0.00,CLR,,0.00,WeatherDisplay:10.37,2013-03-28 02:22:00,
2013-03-27 18:28:00,21.2,4.1,30.15,NNE,22,2.9,2.9,47,0.00,CLR,,0.00,WeatherDisplay:10.37,2013-03-28 02:28:00,
2013-03-27 18:33:00,21.2,4.1,30.12,NNE,22,2.9,2.9,47,0.00,CLR,,0.00,WeatherDisplay:10.37,2013-03-28 02:33:00,
2013-03-27 18:38:00,21.0,3.9,30.12,NNE,22,2.9,2.9,47,0.00,CLR,,0.00,WeatherDisplay:10.37,2013-03-28 02:38:00,
2013-03-27 18:43:00,21.0,3.9,30.12,NNE,22,2.9,2.9,47,0.00,CLR,,0.00,WeatherDisplay:10.37,2013-03-28 02:43:00,
2013-03-27 18:48:00,20.8,3.7,30.12,NNE,22,2.9,2.9,47,0.00,CLR,,0.00,WeatherDisplay:10.37,2013-03-28 02:48:00,
2013-03-27 18:53:00,20.8,4.2,30.12,NNE,22,2.9,2.9,48,0.00,CLR,,0.00,WeatherDisplay:10.37,2013-03-28 02:53:00,
2013-03-27 18:58:00,20.5,3.9,30.12,NNE,22,2.9,2.9,48,0.00,CLR,,0.00,WeatherDisplay:10.37,2013-03-28 02:58:00,
2013-03-27 19:03:00,20.5,3.9,30.12,NNE,22,2.9,2.9,48,0.00,CLR,,0.00,WeatherDisplay:10.37,2013-03-28 03:03:00,
2013-03-27 19:08:00,20.3,3.7,30.12,NNE,22,2.9,2.9,48,0.00,CLR,,0.00,WeatherDisplay:10.37,2013-03-28 03:08:00,
2013-03-27 19:13:00,20.3,3.7,30.12,NNE,22,2.9,2.9,48,0.00,CLR,,0.00,WeatherDisplay:10.37,2013-03-28 03:13:00,
2013-03-27 19:18:00,20.3,4.2,30.12,NNE,22,2.9,2.9,49,0.00,CLR,,0.00,WeatherDisplay:10.37,2013-03-28 03:18:00,
2013-03-27 19:23:00,20.3,4.2,30.12,NNE,22,2.9,2.9,49,0.00,CLR,,0.00,WeatherDisplay:10.37,2013-03-28 03:23:00,
2013-03-27 19:28:00,20.3,4.2,30.12,NNE,22,2.9,2.9,49,0.00,CLR,,0.00,WeatherDisplay:10.37,2013-03-28 03:28:00,
2013-03-27 19:33:00,20.3,4.6,30.12,NNE,22,2.9,2.9,50,0.00,CLR,,0.00,WeatherDisplay:10.37,2013-03-28 03:33:00,
2013-03-27 19:38:00,20.1,4.4,30.12,NNE,22,2.9,2.9,50,0.00,CLR,,0.00,WeatherDisplay:10.37,2013-03-28 03:38:00,
2013-03-27 19:43:00,19.9,4.3,30.12,NNE,22,2.9,2.9,50,0.00,CLR,,0.00,WeatherDisplay:10.37,2013-03-28 03:43:00,
2013-03-27 19:48:00,19.9,4.3,30.15,NNE,22,2.9,2.9,50,0.00,CLR,,0.00,WeatherDisplay:10.37,2013-03-28 03:48:00,
2013-03-27 19:53:00,19.8,4.1,30.15,NNE,22,2.9,2.9,50,0.00,CLR,,0.00,WeatherDisplay:10.37,2013-03-28 03:53:00,
2013-03-27 19:58:00,19.8,4.1,30.15,NNE,22,2.9,2.9,50,0.00,CLR,,0.00,WeatherDisplay:10.37,2013-03-28 03:58:00,
2013-03-27 20:00:00,19.6,3.9,30.15,NNE,22,2.9,2.9,50,0.00,CLR,,0.00,WeatherDisplay:10.37,2013-03-28 04:00:00,
2013-03-27 20:02:00,19.6,3.9,30.15,NNE,22,2.9,2.9,50,0.00,CLR,,0.00,WeatherDisplay:10.37,2013-03-28 04:02:00,
2013-03-27 20:06:00,19.6,3.9,30.12,NNE,22,2.9,2.9,50,0.00,CLR,,0.00,WeatherDisplay:10.37,2013-03-28 04:06:00,
2013-03-27 20:11:00,19.4,3.8,30.12,NNE,22,2.9,2.9,50,0.00,CLR,,0.00,WeatherDisplay:10.37,2013-03-28 04:11:00,
2013-03-27 20:15:00,19.2,3.6,30.12,NNE,22,2.9,2.9,50,0.00,CLR,,0.00,WeatherDisplay:10.37,2013-03-28 04:15:00,
2013-03-27 20:20:00,19.2,3.2,30.12,NNE,22,2.9,2.9,49,0.00,CLR,,0.00,WeatherDisplay:10.37,2013-03-28 04:20:00,
2013-03-27 20:25:00,19.2,3.2,30.12,NNE,22,2.9,2.9,49,0.00,CLR,,0.00,WeatherDisplay:10.37,2013-03-28 04:25:00,
2013-03-27 20:30:00,19.0,3.0,30.12,NNE,22,2.9,2.9,49,0.00,CLR,,0.00,WeatherDisplay:10.37,2013-03-28 04:30:00,
2013-03-27 20:35:00,19.0,3.4,30.12,NNE,22,2.9,2.9,50,0.00,CLR,,0.00,WeatherDisplay:10.37,2013-03-28 04:35:00,
2013-03-27 20:40:00,19.0,3.4,30.12,NNE,22,2.9,2.9,50,0.00,CLR,,0.00,WeatherDisplay:10.37,2013-03-28 04:40:00,
2013-03-27 20:45:00,18.9,3.3,30.12,NNE,22,2.9,2.9,50,0.00,CLR,,0.00,WeatherDisplay:10.37,2013-03-28 04:45:00,
2013-03-27 20:50:00,18.9,3.7,30.12,NNE,22,2.9,2.9,51,0.00,CLR,,0.00,WeatherDisplay:10.37,2013-03-28 04:50:00,
2013-03-27 20:55:00,18.5,3.8,30.12,NNE,22,2.9,2.9,52,0.00,CLR,,0.00,WeatherDisplay:10.37,2013-03-28 04:55:00,
2013-03-27 21:00:00,18.7,3.5,30.12,NNE,22,2.9,2.9,51,0.00,CLR,,0.00,WeatherDisplay:10.37,2013-03-28 05:00:00,
2013-03-27 21:05:00,18.7,3.9,30.12,NNE,22,2.9,2.9,52,0.00,CLR,,0.00,WeatherDisplay:10.37,2013-03-28 05:05:00,
2013-03-27 21:10:00,18.7,3.9,30.12,NNE,22,2.9,2.9,52,0.00,CLR,,0.00,WeatherDisplay:10.37,2013-03-28 05:10:00,
2013-03-27 21:15:00,18.7,3.9,30.12,NNE,22,2.9,2.9,52,0.00,CLR,,0.00,WeatherDisplay:10.37,2013-03-28 05:15:00,
2013-03-27 21:20:00,18.7,4.4,30.12,NNE,22,2.9,2.9,53,0.00,CLR,,0.00,WeatherDisplay:10.37,2013-03-28 05:20:00,
2013-03-27 21:25:00,18.7,4.4,30.12,NNE,22,2.9,2.9,53,0.00,CLR,,0.00,WeatherDisplay:10.37,2013-03-28 05:25:00,
2013-03-27 21:30:00,18.9,4.1,30.12,NNE,22,2.9,2.9,52,0.00,CLR,,0.00,WeatherDisplay:10.37,2013-03-28 05:30:00,
2013-03-27 21:35:00,19.0,4.3,30.12,NNE,22,2.9,2.9,52,0.00,CLR,,0.00,WeatherDisplay:10.37,2013-03-28 05:35:00,
2013-03-27 21:40:00,19.0,3.9,30.12,NNE,22,2.9,2.9,51,0.00,CLR,,0.00,WeatherDisplay:10.37,2013-03-28 05:40:00,
2013-03-27 21:45:00,18.9,3.7,30.12,NNE,22,2.9,2.9,51,0.00,CLR,,0.00,WeatherDisplay:10.37,2013-03-28 05:45:00,
2013-03-27 21:50:00,18.7,3.5,30.12,NNE,22,2.9,2.9,51,0.00,CLR,,0.00,WeatherDisplay:10.37,2013-03-28 05:50:00,
2013-03-27 21:55:00,18.7,3.1,30.12,NNE,22,2.9,2.9,50,0.00,CLR,,0.00,WeatherDisplay:10.37,2013-03-28 05:55:00,
2013-03-27 22:00:00,18.7,3.1,30.12,NNE,22,2.9,2.9,50,0.00,CLR,,0.00,WeatherDisplay:10.37,2013-03-28 06:00:00,
2013-03-27 22:05:00,18.7,3.1,30.12,NNE,22,2.9,2.9,50,0.00,CLR,,0.00,WeatherDisplay:10.37,2013-03-28 06:05:00,
2013-03-27 22:10:00,18.5,2.5,30.12,NNE,22,2.9,2.9,49,0.00,CLR,,0.00,WeatherDisplay:10.37,2013-03-28 06:10:00,
2013-03-27 22:15:00,18.3,2.3,30.12,NNE,22,2.9,2.9,49,0.00,CLR,,0.00,WeatherDisplay:10.37,2013-03-28 06:15:00,
2013-03-27 22:21:00,18.3,1.9,30.12,NNE,22,2.9,2.9,48,0.00,CLR,,0.00,WeatherDisplay:10.37,2013-03-28 06:21:00,
2013-03-27 22:27:00,18.3,1.9,30.12,NNE,22,2.9,2.9,48,0.00,CLR,,0.00,WeatherDisplay:10.37,2013-03-28 06:27:00,
2013-03-27 22:32:00,18.3,2.3,30.12,NNE,22,2.9,2.9,49,0.00,CLR,,0.00,WeatherDisplay:10.37,2013-03-28 06:32:00,
2013-03-27 22:37:00,18.1,1.7,30.12,NNE,22,2.9,2.9,48,0.00,CLR,,0.00,WeatherDisplay:10.37,2013-03-28 06:37:00,
2013-03-27 22:42:00,18.1,1.7,30.12,NNE,22,2.9,2.9,48,0.00,CLR,,0.00,WeatherDisplay:10.37,2013-03-28 06:42:00,
2013-03-27 22:47:00,18.1,2.2,30.12,NNE,22,2.9,2.9,49,0.00,CLR,,0.00,WeatherDisplay:10.37,2013-03-28 06:47:00,
2013-03-27 22:52:00,18.1,1.7,30.12,NNE,22,2.9,2.9,48,0.00,CLR,,0.00,WeatherDisplay:10.37,2013-03-28 06:52:00,
2013-03-27 22:57:00,18.1,1.7,30.12,NNE,22,2.9,2.9,48,0.00,CLR,,0.00,WeatherDisplay:10.37,2013-03-28 06:57:00,
2013-03-27 23:03:00,18.0,1.5,30.12,NNE,22,2.9,2.9,48,0.00,CLR,,0.00,WeatherDisplay:10.37,2013-03-28 07:03:00,
2013-03-27 23:08:00,18.0,1.5,30.12,NNE,22,2.9,2.9,48,0.00,CLR,,0.00,WeatherDisplay:10.37,2013-03-28 07:08:00,
2013-03-27 23:13:00,17.8,1.4,30.12,NNE,22,2.9,2.9,48,0.00,CLR,,0.00,WeatherDisplay:10.37,2013-03-28 07:13:00,
2013-03-27 23:18:00,17.8,1.4,30.12,NNE,22,2.9,2.9,48,0.00,CLR,,0.00,WeatherDisplay:10.37,2013-03-28 07:18:00,
2013-03-27 23:23:00,17.6,1.7,30.12,NNE,22,2.9,2.9,49,0.00,CLR,,0.00,WeatherDisplay:10.37,2013-03-28 07:23:00,
2013-03-27 23:28:00,17.6,1.7,30.12,NNE,22,2.9,2.9,49,0.00,CLR,,0.00,WeatherDisplay:10.37,2013-03-28 07:28:00,
2013-03-27 23:33:00,17.6,1.7,30.12,NNE,22,2.9,2.9,49,0.00,CLR,,0.00,WeatherDisplay:10.37,2013-03-28 07:33:00,
2013-03-27 23:38:00,17.4,1.5,30.12,NNE,22,2.9,2.9,49,0.00,CLR,,0.00,WeatherDisplay:10.37,2013-03-28 07:38:00,
2013-03-27 23:43:00,17.4,1.5,30.12,NNE,22,2.9,2.9,49,0.00,CLR,,0.00,WeatherDisplay:10.37,2013-03-28 07:43:00,
2013-03-27 23:48:00,17.4,1.0,30.12,NNE,22,2.9,2.9,48,0.00,CLR,,0.00,WeatherDisplay:10.37,2013-03-28 07:48:00,
2013-03-27 23:53:00,17.2,0.9,30.12,NNE,22,2.9,2.9,48,0.00,CLR,,0.00,WeatherDisplay:10.37,2013-03-28 07:53:00,
2013-03-27 23:58:00,17.1,0.7,30.12,NNE,22,2.9,2.9,48,0.00,CLR,,0.00,WeatherDisplay:10.37,2013-03-28 07:58:00,